Weather History for Watertown, NY

Change the Weather History Date:

Saturday, March 1, 2014

  Actual Average Record
Temperature  
Mean Temperature 13 °F 25 °F  
Max Temperature 34 °F 35 °F 60 °F (1954)
Min Temperature -8 °F 14 °F -16 °F (1980)
Degree Days  
Heating Degree Days 52 40  
Month to date heating degree days 52 40  
Since 1 July heating degree days 5723 5481  
Cooling Degree Days 0 0  
Month to date cooling degree days 0 0  
Year to date cooling degree days 0 0  
Moisture  
Dew Point 8 °F    
Average Humidity 53    
Maximum Humidity 75    
Minimum Humidity 31    
Precipitation  
Precipitation T in 0.08 in 0.96 in (1987)
Month to date precipitation T 0.08  
Year to date precipitation 7.10 4.96  
Sea Level Pressure  
Sea Level Pressure 30.14 in    
Wind  
Wind Speed 9 mph (SW)    
Max Wind Speed 18 mph    
Max Gust Speed 24 mph    
Visibility 8 miles    
Events Snow    
T = Trace of Precipitation, MM = Missing Value Source: NWS Daily Summary

Daily Weather History Graph

Daily Weather History Graph

Search for Another Location

Airport:

Trip Planner

Search our weather history database for the weather conditions in past years. The results will help you decide how hot, cold, wet, or windy it might be!

Date:

Astronomy

Mar. 01, 2014 Rise Set
Actual Time 6:40 AM EST 5:52 PM EST
Civil Twilight 6:12 AM EST 6:21 PM EST
Nautical Twilight 5:38 AM EST 6:54 PM EST
Astronomical Twilight 5:05 AM EST 7:28 PM EST
Moon 6:31 AM EST (3/1) 6:40 PM EST (3/1)
Length of Visible Light 12h 09m
Length of Day
11h 11m
New Moon, 0% of the Moon is Illuminated
Mar 1
New Moon
Mar 8
First Quarter
Mar 16
Full
Mar 23
Last Quarter
Mar 30
New

Hourly Weather History & Observations

Time (EST) Temp. Windchill Dew Point Humidity Pressure Visibility Wind Dir Wind Speed Gust Speed Precip Events Conditions
12:56 AM 3.9 °F -6.9 °F -6.0 °F 64% 30.30 in 10.0 mi ENE 5.8 mph - N/A   Clear
1:56 AM 16.0 °F 7.4 °F -4.0 °F 41% 30.28 in 10.0 mi South 5.8 mph - N/A   Overcast
2:56 AM 18.0 °F 7.7 °F -5.1 °F 36% 30.25 in 10.0 mi South 8.1 mph - N/A   Overcast
3:56 AM 18.0 °F 7.7 °F -4.0 °F 38% 30.23 in 10.0 mi South 8.1 mph - N/A   Overcast
4:56 AM 19.0 °F 10.0 °F -4.0 °F 36% 30.22 in 10.0 mi South 6.9 mph - N/A   Overcast
5:56 AM 19.0 °F 11.1 °F -4.0 °F 36% 30.23 in 10.0 mi SSW 5.8 mph - N/A   Overcast
6:56 AM 19.0 °F 10.0 °F -4.0 °F 36% 30.22 in 10.0 mi South 6.9 mph - N/A   Mostly Cloudy
7:56 AM 19.0 °F 10.0 °F -2.9 °F 38% 30.23 in 10.0 mi South 6.9 mph - N/A   Mostly Cloudy
8:56 AM 21.9 °F 10.4 °F -2.0 °F 35% 30.21 in 10.0 mi South 11.5 mph - N/A   Overcast
9:56 AM 23.0 °F 12.4 °F -0.9 °F 35% 30.19 in 10.0 mi South 10.4 mph - N/A   Overcast
10:56 AM 25.0 °F 14.2 °F -0.0 °F 34% 30.16 in 10.0 mi South 11.5 mph - N/A   Overcast
11:56 AM 28.0 °F 17.5 °F 1.0 °F 31% 30.12 in 10.0 mi South 12.7 mph 19.6 mph N/A   Overcast
12:56 PM 30.0 °F 21.1 °F 3.0 °F 32% 30.10 in 10.0 mi SW 10.4 mph - N/A   Overcast
1:56 PM 30.9 °F 20.7 °F 3.9 °F 32% 30.08 in 10.0 mi South 13.8 mph 21.9 mph N/A   Overcast
2:56 PM 33.1 °F 24.4 °F 6.1 °F 32% 30.06 in 10.0 mi South 11.5 mph - N/A   Overcast
3:56 PM 34.0 °F 27.2 °F 8.1 °F 34% 30.05 in 10.0 mi South 8.1 mph - N/A   Overcast
4:56 PM 34.0 °F 27.2 °F 10.0 °F 37% 30.03 in 10.0 mi South 8.1 mph - N/A   Overcast
5:56 PM 33.1 °F 26.1 °F 12.0 °F 42% 30.04 in 10.0 mi SW 8.1 mph - N/A   Overcast
6:56 PM 30.9 °F 20.7 °F 17.1 °F 57% 30.08 in 10.0 mi WSW 13.8 mph 21.9 mph N/A   Overcast
7:56 PM 30.0 °F 22.4 °F 19.0 °F 64% 30.09 in 10.0 mi WSW 8.1 mph - N/A   Overcast
8:41 PM 28.9 °F 18.6 °F 21.0 °F 72% 30.07 in 10.0 mi West 12.7 mph - N/A   Overcast
8:56 PM 28.9 °F 19.8 °F 21.0 °F 72% 30.10 in 10.0 mi West 10.4 mph - N/A   Overcast
9:56 PM 27.0 °F 18.7 °F 19.9 °F 75% 30.12 in 9.0 mi West 8.1 mph - N/A   Overcast
10:41 PM 27.0 °F 17.3 °F 19.9 °F 75% 30.09 in 1.8 mi WSW 10.4 mph - 0.00 in Snow Light Snow
10:48 PM 26.1 °F 14.5 °F 19.9 °F 78% 30.09 in 1.8 mi West 13.8 mph - 0.00 in Snow Light Snow
10:56 PM 26.1 °F 14.5 °F 19.0 °F 75% 30.12 in 2.5 mi West 13.8 mph - 0.00 in Snow Light Snow
11:03 PM 25.0 °F 11.3 °F 19.0 °F 78% 30.09 in 3.0 mi West 18.4 mph - 0.00 in Snow Light Snow
11:22 PM 23.0 °F 10.6 °F 16.0 °F 74% 30.10 in 4.0 mi West 13.8 mph - 0.00 in Snow Light Snow
11:47 PM 23.0 °F 11.1 °F 16.0 °F 74% 30.10 in 2.0 mi West 12.7 mph - 0.00 in Snow Light Snow
11:53 PM 23.0 °F 11.1 °F 17.6 °F 80% 30.10 in 1.5 mi West 12.7 mph - 0.00 in Snow Light Snow
11:54 PM 23.0 °F 11.7 °F 17.1 °F 78% 30.13 in 1.5 mi West 11.5 mph - 0.00 in Snow Light Snow